| time (UTC) | temp F | wind direction | speed MPH | gust MPH | rain 1hr in | rain 24hr in | rain mn in | humidity % | barometer mb |
| 20260904052514 | 56 | 288 | 0.0 | 0.0 | 0.00 | 0.00 | 0.00 | 78 | 1010.1 |
| 20260904052017 | 56 | 288 | 0.0 | 0.0 | 0.00 | 0.00 | 0.00 | 79 | 1010.1 |
| 20260904051615 | 56 | 288 | 0.0 | 0.0 | 0.00 | 0.00 | 0.00 | 78 | 1010.1 |
| 20260904051014 | 56 | 288 | 0.0 | 0.0 | 0.00 | 0.00 | 0.00 | 78 | 1010.1 |
| 20260904050514 | 56 | 288 | 0.0 | 0.0 | 0.00 | 0.00 | 0.00 | 74 | 1010.2 |
| 20260904050015 | 56 | 288 | 0.0 | 0.0 | 0.00 | 0.00 | 0.00 | 73 | 1010.2 |
| 20260904045518 | 57 | 288 | 0.0 | 0.0 | 0.00 | 0.00 | 0.00 | 72 | 1010.2 |
| 20260904045014 | 57 | 288 | 0.0 | 0.0 | 0.00 | 0.00 | 0.00 | 71 | 1010.2 |
| 20260904044529 | 57 | 288 | 0.0 | 0.0 | 0.00 | 0.00 | 0.00 | 73 | 1010.1 |
| 20260904044014 | 57 | 288 | 0.0 | 0.0 | 0.00 | 0.00 | 0.00 | 71 | 1010.1 |
| 20260904043514 | 58 | 288 | 0.0 | 0.0 | 0.00 | 0.00 | 0.00 | 71 | 1010.1 |
| 20260904043015 | 58 | 288 | 0.0 | 0.0 | 0.00 | 0.00 | 0.00 | 69 | 1010.1 |
| 20260904042514 | 58 | 288 | 0.0 | 0.0 | 0.00 | 0.00 | 0.00 | 69 | 1010.0 |
| 20260904042014 | 58 | 288 | 0.0 | 0.0 | 0.00 | 0.00 | 0.00 | 69 | 1010.0 |
| 20260904041516 | 58 | 288 | 0.0 | 0.0 | 0.00 | 0.00 | 0.00 | 70 | 1009.9 |
| 20260904041016 | 58 | 288 | 0.0 | 0.0 | 0.00 | 0.00 | 0.00 | 70 | 1010.0 |
| 20260904040514 | 59 | 288 | 0.0 | 0.0 | 0.00 | 0.00 | 0.00 | 69 | 1010.0 |
| 20260904040015 | 59 | 288 | 0.0 | 0.0 | 0.00 | 0.00 | 0.00 | 69 | 1010.0 |
| 20260904035615 | 59 | 288 | 0.0 | 0.0 | 0.00 | 0.00 | 0.00 | 70 | 1009.9 |
| 20260904035014 | 59 | 288 | 0.0 | 0.0 | 0.00 | 0.00 | 0.00 | 69 | 1010.0 |
| 20260904034515 | 59 | 288 | 0.0 | 0.0 | 0.00 | 0.00 | 0.00 | 70 | 1009.9 |
| 20260904034014 | 59 | 288 | 0.0 | 0.0 | 0.00 | 0.00 | 0.00 | 70 | 1009.7 |
| 20260904033515 | 60 | 288 | 0.0 | 0.0 | 0.00 | 0.00 | 0.00 | 70 | 1009.7 |
| 20260904033015 | 60 | 288 | 0.0 | 4.0 | 0.00 | 0.00 | 0.00 | 70 | 1009.7 |
| 20260904032514 | 60 | 288 | 0.0 | 9.0 | 0.00 | 0.00 | 0.00 | 70 | 1009.6 |
| 20260904032014 | 60 | 287 | 2.0 | 9.0 | 0.00 | 0.00 | 0.00 | 69 | 1009.4 |
| 20260904031515 | 61 | 325 | 1.0 | 7.0 | 0.00 | 0.00 | 0.00 | 68 | 1009.4 |
| 20260904031015 | 61 | 322 | 2.0 | 10.0 | 0.00 | 0.00 | 0.00 | 67 | 1009.3 |
| 20260904030515 | 61 | 326 | 2.0 | 10.0 | 0.00 | 0.00 | 0.00 | 66 | 1009.1 |
| 20260904030014 | 62 | 326 | 1.0 | 7.0 | 0.00 | 0.00 | 0.00 | 65 | 1009.1 |
| 20260904025514 | 62 | 309 | 2.0 | 8.0 | 0.00 | 0.00 | 0.00 | 65 | 1009.1 |
| 20260904025015 | 62 | 325 | 2.0 | 11.0 | 0.00 | 0.00 | 0.00 | 64 | 1009.0 |
| 20260904024515 | 63 | 326 | 6.0 | 11.0 | 0.00 | 0.00 | 0.00 | 63 | 1009.1 |
| 20260904024015 | 63 | 316 | 2.0 | 6.0 | 0.00 | 0.00 | 0.00 | 60 | 1009.1 |
| 20260904023514 | 64 | 323 | 0.0 | 4.0 | 0.00 | 0.00 | 0.00 | 58 | 1009.1 |
| 20260904023015 | 64 | 324 | 0.0 | 3.0 | 0.00 | 0.00 | 0.00 | 57 | 1009.0 |
| 20260904022516 | 65 | 324 | 0.0 | 7.0 | 0.00 | 0.00 | 0.00 | 56 | 1009.1 |
| 20260904022015 | 65 | 324 | 1.0 | 7.0 | 0.00 | 0.00 | 0.00 | 56 | 1009.2 |
| 20260904021521 | 65 | 324 | 0.0 | 8.0 | 0.00 | 0.00 | 0.00 | 55 | 1009.2 |
| 20260904021014 | 66 | 323 | 1.0 | 11.0 | 0.00 | 0.00 | 0.00 | 54 | 1009.3 |
| 20260904020516 | 66 | 313 | 3.0 | 11.0 | 0.00 | 0.00 | 0.00 | 52 | 1009.2 |
| 20260904020015 | 67 | 324 | 4.0 | 10.0 | 0.00 | 0.00 | 0.00 | 48 | 1009.2 |
| 20260904015516 | 68 | 311 | 2.0 | 8.0 | 0.00 | 0.00 | 0.00 | 46 | 1009.2 |
| 20260904015016 | 69 | 296 | 2.0 | 7.0 | 0.00 | 0.00 | 0.00 | 44 | 1009.2 |
| 20260904014521 | 69 | 303 | 1.0 | 7.0 | 0.00 | 0.00 | 0.00 | 41 | 1009.2 |
| 20260904014015 | 70 | 297 | 1.0 | 6.0 | 0.00 | 0.00 | 0.00 | 40 | 1009.2 |
| 20260904013514 | 71 | 289 | 0.0 | 6.0 | 0.00 | 0.00 | 0.00 | 38 | 1009.2 |
| 20260904013014 | 71 | 302 | 1.0 | 5.0 | 0.00 | 0.00 | 0.00 | 37 | 1009.2 |
| 20260904012519 | 71 | 314 | 0.0 | 7.0 | 0.00 | 0.00 | 0.00 | 37 | 1009.2 |
| 20260904012018 | 71 | 332 | 1.0 | 7.0 | 0.00 | 0.00 | 0.00 | 37 | 1009.2 |
| 20260904011527 | 71 | 328 | 1.0 | 7.0 | 0.00 | 0.00 | 0.00 | 37 | 1009.2 |
| 20260904011014 | 71 | 300 | 4.0 | 10.0 | 0.00 | 0.00 | 0.00 | 36 | 1009.1 |
| 20260904010518 | 71 | 295 | 2.0 | 11.0 | 0.00 | 0.00 | 0.00 | 36 | 1009.1 |
| 20260904010029 | 72 | 293 | 2.0 | 12.0 | 0.00 | 0.00 | 0.00 | 36 | 1009.1 |
| 20260904005515 | 72 | 320 | 4.0 | 14.0 | 0.00 | 0.00 | 0.00 | 34 | 1009.1 |
| 20260904005014 | 73 | 275 | 3.0 | 14.0 | 0.00 | 0.00 | 0.00 | 33 | 1009.1 |
| 20260904004515 | 74 | 299 | 2.0 | 12.0 | 0.00 | 0.00 | 0.00 | 31 | 1009.1 |
| 20260904004015 | 74 | 312 | 5.0 | 12.0 | 0.00 | 0.00 | 0.00 | 30 | 1009.1 |
| 20260904003517 | 75 | 306 | 1.0 | 8.0 | 0.00 | 0.00 | 0.00 | 29 | 1009.0 |
| 20260904003015 | 75 | 310 | 0.0 | 16.0 | 0.00 | 0.00 | 0.00 | 29 | 1008.9 |
| 20260904002515 | 74 | 337 | 8.0 | 17.0 | 0.00 | 0.00 | 0.00 | 29 | 1008.9 |
| 20260904002015 | 76 | 316 | 8.0 | 14.0 | 0.00 | 0.00 | 0.00 | 27 | 1008.9 |
| 20260904001514 | 76 | 175 | 2.0 | 15.0 | 0.00 | 0.00 | 0.00 | 29 | 1009.1 |
| 20260904001014 | 77 | 205 | 10.0 | 15.0 | 0.00 | 0.00 | 0.00 | 28 | 1009.0 |
| 20260904000515 | 77 | 154 | 10.0 | 19.0 | 0.00 | 0.00 | 0.00 | 27 | 1009.0 |
| 20260904000015 | 77 | 163 | 6.0 | 13.0 | 0.00 | 0.00 | 0.00 | 27 | 1008.9 |
| 20260903235514 | 77 | 192 | 8.0 | 15.0 | 0.00 | 0.00 | 0.00 | 28 | 1009.0 |
| 20260903235015 | 78 | 187 | 11.0 | 15.0 | 0.00 | 0.00 | 0.00 | 27 | 1009.0 |
| 20260903234514 | 78 | 183 | 4.0 | 10.0 | 0.00 | 0.00 | 0.00 | 27 | 1009.1 |
| 20260903234015 | 80 | 184 | 2.0 | 7.0 | 0.00 | 0.00 | 0.00 | 25 | 1009.2 |
| 20260903233615 | 79 | 184 | 0.0 | 2.0 | 0.00 | 0.00 | 0.00 | 25 | 1009.1 |
| 20260903233014 | 78 | 184 | 0.0 | 9.0 | 0.00 | 0.00 | 0.00 | 25 | 1009.3 |
| 20260903232515 | 78 | 182 | 0.0 | 12.0 | 0.00 | 0.00 | 0.00 | 26 | 1009.4 |
| 20260903232015 | 78 | 195 | 8.0 | 12.0 | 0.00 | 0.00 | 0.00 | 25 | 1009.5 |
| 20260903231516 | 79 | 160 | 0.0 | 5.0 | 0.00 | 0.00 | 0.00 | 25 | 1009.5 |
| 20260903231016 | 79 | 163 | 0.0 | 8.0 | 0.00 | 0.00 | 0.00 | 25 | 1009.6 |
| 20260903230515 | 78 | 163 | 3.0 | 11.0 | 0.00 | 0.00 | 0.00 | 25 | 1009.5 |
| 20260903230018 | 78 | 143 | 2.0 | 11.0 | 0.00 | 0.00 | 0.00 | 25 | 1009.7 |
| 20260903225515 | 79 | 192 | 1.0 | 11.0 | 0.00 | 0.00 | 0.00 | 24 | 1009.8 |
| 20260903225015 | 79 | 191 | 0.0 | 12.0 | 0.00 | 0.00 | 0.00 | 25 | 1009.8 |
| 20260903224522 | 79 | 191 | 0.0 | 12.0 | 0.00 | 0.00 | 0.00 | 25 | 1009.9 |
| 20260903224017 | 78 | 154 | 3.0 | 10.0 | 0.00 | 0.00 | 0.00 | 26 | 1010.0 |
| 20260903223515 | 77 | 177 | 4.0 | 12.0 | 0.00 | 0.00 | 0.00 | 26 | 1010.0 |
| 20260903223015 | 77 | 156 | 5.0 | 11.0 | 0.00 | 0.00 | 0.00 | 26 | 1010.0 |
| 20260903222515 | 78 | 133 | 8.0 | 14.0 | 0.00 | 0.00 | 0.00 | 26 | 1010.1 |
| 20260903222018 | 78 | 151 | 8.0 | 14.0 | 0.00 | 0.00 | 0.00 | 25 | 1010.1 |
| 20260903221515 | 79 | 187 | 0.0 | 11.0 | 0.00 | 0.00 | 0.00 | 24 | 1010.1 |
| 20260903221115 | 79 | 187 | 4.0 | 11.0 | 0.00 | 0.00 | 0.00 | 25 | 1010.2 |
| 20260903220516 | 79 | 178 | 3.0 | 11.0 | 0.00 | 0.00 | 0.00 | 25 | 1010.3 |
| 20260903220020 | 78 | 195 | 0.0 | 6.0 | 0.00 | 0.00 | 0.00 | 26 | 1010.4 |
| 20260903215515 | 78 | 177 | 0.0 | 12.0 | 0.00 | 0.00 | 0.00 | 25 | 1010.5 |
| 20260903215016 | 78 | 165 | 6.0 | 12.0 | 0.00 | 0.00 | 0.00 | 25 | 1010.6 |
| 20260903214515 | 78 | 212 | 0.0 | 15.0 | 0.00 | 0.00 | 0.00 | 26 | 1010.6 |
| 20260903214017 | 77 | 181 | 6.0 | 15.0 | 0.00 | 0.00 | 0.00 | 26 | 1010.6 |
| 20260903213516 | 78 | 180 | 5.0 | 12.0 | 0.00 | 0.00 | 0.00 | 26 | 1010.6 |
| 20260903213018 | 78 | 166 | 4.0 | 10.0 | 0.00 | 0.00 | 0.00 | 26 | 1010.6 |
| 20260903212517 | 76 | 124 | 0.0 | 14.0 | 0.00 | 0.00 | 0.00 | 28 | 1010.6 |
| 20260903212015 | 76 | 170 | 8.0 | 14.0 | 0.00 | 0.00 | 0.00 | 28 | 1010.7 |
| 20260903211538 | 76 | 160 | 1.0 | 14.0 | 0.00 | 0.00 | 0.00 | 27 | 1010.7 |
| 20260903211015 | 76 | 163 | 3.0 | 14.0 | 0.00 | 0.00 | 0.00 | 27 | 1010.8 |
| 20260903210515 | 76 | 163 | 6.0 | 13.0 | 0.00 | 0.00 | 0.00 | 27 | 1010.8 |
| 20260903210121 | 76 | 163 | 0.0 | 12.0 | 0.00 | 0.00 | 0.00 | 28 | 1010.8 |
| 20260903205515 | 76 | 166 | 9.0 | 12.0 | 0.00 | 0.00 | 0.00 | 27 | 1010.9 |
| 20260903205014 | 75 | 125 | 0.0 | 13.0 | 0.00 | 0.00 | 0.00 | 29 | 1010.9 |
| 20260903204515 | 75 | 189 | 7.0 | 13.0 | 0.00 | 0.00 | 0.00 | 29 | 1011.1 |
| 20260903204018 | 75 | 171 | 6.0 | 15.0 | 0.00 | 0.00 | 0.00 | 30 | 1011.0 |
| 20260903203514 | 75 | 160 | 9.0 | 15.0 | 0.00 | 0.00 | 0.00 | 29 | 1011.0 |
| 20260903203015 | 76 | 162 | 3.0 | 14.0 | 0.00 | 0.00 | 0.00 | 29 | 1011.0 |
| 20260903202515 | 75 | 123 | 3.0 | 14.0 | 0.00 | 0.00 | 0.00 | 30 | 1011.0 |
| 20260903202015 | 75 | 181 | 6.0 | 16.0 | 0.00 | 0.00 | 0.00 | 30 | 1011.1 |
| 20260903201514 | 75 | 161 | 3.0 | 16.0 | 0.00 | 0.00 | 0.00 | 31 | 1011.1 |
| 20260903201016 | 75 | 204 | 11.0 | 16.0 | 0.00 | 0.00 | 0.00 | 31 | 1011.2 |
| 20260903200515 | 75 | 164 | 6.0 | 14.0 | 0.00 | 0.00 | 0.00 | 31 | 1011.2 |
| 20260903200015 | 75 | 181 | 8.0 | 14.0 | 0.00 | 0.00 | 0.00 | 31 | 1011.2 |
| 20260903195514 | 76 | 181 | 5.0 | 15.0 | 0.00 | 0.00 | 0.00 | 30 | 1011.4 |
| 20260903195016 | 75 | 188 | 2.0 | 13.0 | 0.00 | 0.00 | 0.00 | 31 | 1011.3 |
| 20260903194517 | 74 | 158 | 6.0 | 13.0 | 0.00 | 0.00 | 0.00 | 30 | 1011.5 |
| 20260903194014 | 75 | 163 | 2.0 | 11.0 | 0.00 | 0.00 | 0.00 | 30 | 1011.6 |
| 20260903193515 | 75 | 155 | 6.0 | 11.0 | 0.00 | 0.00 | 0.00 | 29 | 1011.6 |
| 20260903193015 | 74 | 185 | 4.0 | 10.0 | 0.00 | 0.00 | 0.00 | 29 | 1011.7 |
| 20260903192515 | 73 | 139 | 2.0 | 11.0 | 0.00 | 0.00 | 0.00 | 30 | 1011.7 |
| 20260903192015 | 74 | 154 | 5.0 | 12.0 | 0.00 | 0.00 | 0.00 | 30 | 1011.9 |
| 20260903191518 | 74 | 193 | 6.0 | 13.0 | 0.00 | 0.00 | 0.00 | 29 | 1011.9 |
| 20260903191015 | 73 | 176 | 4.0 | 13.0 | 0.00 | 0.00 | 0.00 | 31 | 1012.0 |
| 20260903190515 | 72 | 164 | 1.0 | 13.0 | 0.00 | 0.00 | 0.00 | 31 | 1012.0 |
| 20260903190015 | 73 | 181 | 3.0 | 15.0 | 0.00 | 0.00 | 0.00 | 31 | 1012.1 |
| 20260903185515 | 72 | 162 | 8.0 | 13.0 | 0.00 | 0.00 | 0.00 | 33 | 1012.1 |
| 20260903185015 | 73 | 181 | 7.0 | 12.0 | 0.00 | 0.00 | 0.00 | 33 | 1012.2 |
| 20260903184515 | 72 | 164 | 5.0 | 13.0 | 0.00 | 0.00 | 0.00 | 34 | 1012.2 |
| 20260903184015 | 73 | 181 | 8.0 | 13.0 | 0.00 | 0.00 | 0.00 | 33 | 1012.3 |
| 20260903183515 | 73 | 126 | 0.0 | 12.0 | 0.00 | 0.00 | 0.00 | 33 | 1012.3 |
| 20260903183016 | 72 | 177 | 6.0 | 14.0 | 0.00 | 0.00 | 0.00 | 36 | 1012.4 |
| 20260903182516 | 71 | 173 | 8.0 | 14.0 | 0.00 | 0.00 | 0.00 | 37 | 1012.4 |
| 20260903182015 | 72 | 177 | 6.0 | 12.0 | 0.00 | 0.00 | 0.00 | 36 | 1012.4 |
| 20260903181518 | 71 | 193 | 0.0 | 11.0 | 0.00 | 0.00 | 0.00 | 38 | 1012.5 |
| 20260903181018 | 71 | 162 | 4.0 | 13.0 | 0.00 | 0.00 | 0.00 | 40 | 1012.6 |
| 20260903180515 | 70 | 177 | 6.0 | 13.0 | 0.00 | 0.00 | 0.00 | 40 | 1012.6 |
| 20260903180018 | 70 | 152 | 4.0 | 11.0 | 0.00 | 0.00 | 0.00 | 40 | 1012.6 |
| 20260903175517 | 71 | 191 | 5.0 | 10.0 | 0.00 | 0.00 | 0.00 | 38 | 1012.6 |
| 20260903175015 | 71 | 185 | 2.0 | 10.0 | 0.00 | 0.00 | 0.00 | 39 | 1012.7 |
| 20260903174534 | 72 | 172 | 4.0 | 9.0 | 0.00 | 0.00 | 0.00 | 39 | 1012.7 |
| 20260903174014 | 70 | 162 | 2.0 | 12.0 | 0.00 | 0.00 | 0.00 | 41 | 1012.7 |
| 20260903173515 | 71 | 169 | 3.0 | 9.0 | 0.00 | 0.00 | 0.00 | 40 | 1012.8 |
| 20260903173023 | 71 | 191 | 2.0 | 9.0 | 0.00 | 0.00 | 0.00 | 40 | 1012.8 |
| 20260903172515 | 70 | 195 | 0.0 | 8.0 | 0.00 | 0.00 | 0.00 | 41 | 1012.9 |
| 20260903172016 | 70 | 196 | 0.0 | 10.0 | 0.00 | 0.00 | 0.00 | 42 | 1012.9 |
| 20260903171614 | 70 | 188 | 1.0 | 12.0 | 0.00 | 0.00 | 0.00 | 43 | 1012.9 |
| 20260903171015 | 69 | 187 | 7.0 | 12.0 | 0.00 | 0.00 | 0.00 | 44 | 1013.0 |
| 20260903170517 | 70 | 197 | 3.0 | 11.0 | 0.00 | 0.00 | 0.00 | 43 | 1012.9 |
| 20260903170016 | 69 | 195 | 4.0 | 11.0 | 0.00 | 0.00 | 0.00 | 45 | 1012.9 |
| 20260903165515 | 70 | 189 | 0.0 | 9.0 | 0.00 | 0.00 | 0.00 | 44 | 1012.8 |
| 20260903165015 | 70 | 190 | 1.0 | 9.0 | 0.00 | 0.00 | 0.00 | 43 | 1012.9 |
| 20260903164515 | 71 | 184 | 2.0 | 9.0 | 0.00 | 0.00 | 0.00 | 43 | 1012.9 |
| 20260903164115 | 70 | 326 | 0.0 | 0.0 | 0.00 | 0.00 | 0.00 | 44 | 1012.9 |
| 20260903163517 | 69 | 326 | 0.0 | 0.0 | 0.00 | 0.00 | 0.00 | 47 | 1012.8 |
| 20260903163121 | 68 | 326 | 0.0 | 0.0 | 0.00 | 0.00 | 0.00 | 50 | 1012.8 |
| 20260903162515 | 66 | 326 | 0.0 | 0.0 | 0.00 | 0.00 | 0.00 | 51 | 1012.8 |
| 20260903162016 | 66 | 326 | 0.0 | 0.0 | 0.00 | 0.00 | 0.00 | 51 | 1012.9 |
| 20260903161522 | 65 | 326 | 0.0 | 0.0 | 0.00 | 0.00 | 0.00 | 51 | 1012.9 |
| 20260903161017 | 64 | 326 | 0.0 | 0.0 | 0.00 | 0.00 | 0.00 | 53 | 1013.0 |
| 20260903160516 | 64 | 326 | 0.0 | 0.0 | 0.00 | 0.00 | 0.00 | 53 | 1013.1 |
| 20260903160016 | 63 | 326 | 0.0 | 0.0 | 0.00 | 0.00 | 0.00 | 57 | 1013.2 |
| 20260903155515 | 63 | 326 | 0.0 | 0.0 | 0.00 | 0.00 | 0.00 | 56 | 1013.3 |
| 20260903155015 | 62 | 326 | 0.0 | 0.0 | 0.00 | 0.00 | 0.00 | 58 | 1013.3 |
| 20260903154515 | 62 | 326 | 0.0 | 0.0 | 0.00 | 0.00 | 0.00 | 59 | 1013.4 |
| 20260903154015 | 61 | 326 | 0.0 | 0.0 | 0.00 | 0.00 | 0.00 | 61 | 1013.4 |
| 20260903153516 | 60 | 326 | 0.0 | 0.0 | 0.00 | 0.00 | 0.00 | 65 | 1013.5 |
| 20260903153016 | 59 | 326 | 0.0 | 0.0 | 0.00 | 0.00 | 0.00 | 68 | 1013.6 |
| 20260903152516 | 58 | 326 | 0.0 | 0.0 | 0.00 | 0.00 | 0.00 | 71 | 1013.6 |
| 20260903152117 | 57 | 326 | 0.0 | 0.0 | 0.00 | 0.00 | 0.00 | 72 | 1013.7 |
| 20260903151516 | 56 | 326 | 0.0 | 0.0 | 0.00 | 0.00 | 0.00 | 74 | 1013.8 |
| 20260903151015 | 55 | 326 | 0.0 | 0.0 | 0.00 | 0.00 | 0.00 | 76 | 1013.8 |
| 20260903150518 | 54 | 326 | 0.0 | 0.0 | 0.00 | 0.00 | 0.00 | 79 | 1013.8 |
| 20260903150023 | 53 | 326 | 0.0 | 0.0 | 0.00 | 0.00 | 0.00 | 80 | 1013.8 |
| 20260903145518 | 52 | 326 | 0.0 | 0.0 | 0.00 | 0.00 | 0.00 | 82 | 1013.8 |
| 20260903145019 | 51 | 326 | 0.0 | 0.0 | 0.00 | 0.00 | 0.00 | 83 | 1013.8 |
| 20260903144515 | 51 | 326 | 0.0 | 0.0 | 0.00 | 0.00 | 0.00 | 84 | 1013.8 |
| 20260903144018 | 50 | 326 | 0.0 | 0.0 | 0.00 | 0.00 | 0.00 | 85 | 1013.8 |
| 20260903143515 | 49 | 326 | 0.0 | 0.0 | 0.00 | 0.00 | 0.00 | 86 | 1013.8 |
| 20260903143015 | 49 | 326 | 0.0 | 0.0 | 0.00 | 0.00 | 0.00 | 86 | 1013.8 |
| 20260903142515 | 48 | 326 | 0.0 | 0.0 | 0.00 | 0.00 | 0.00 | 87 | 1013.8 |
| 20260903142016 | 48 | 326 | 0.0 | 0.0 | 0.00 | 0.00 | 0.00 | 86 | 1013.8 |
| 20260903141519 | 48 | 326 | 0.0 | 0.0 | 0.00 | 0.00 | 0.00 | 86 | 1013.7 |
| 20260903141015 | 48 | 326 | 0.0 | 0.0 | 0.00 | 0.00 | 0.00 | 87 | 1013.7 |
| 20260903140624 | 48 | 326 | 0.0 | 0.0 | 0.00 | 0.00 | 0.00 | 87 | 1013.6 |
| 20260903134019 | 47 | 326 | 0.0 | 0.0 | 0.00 | 0.00 | 0.00 | 86 | 1013.6 |
| 20260903133515 | 47 | 326 | 0.0 | 0.0 | 0.00 | 0.00 | 0.00 | 86 | 1013.5 |
| 20260903133017 | 47 | 326 | 0.0 | 0.0 | 0.00 | 0.00 | 0.00 | 86 | 1013.4 |
| 20260903132516 | 47 | 326 | 0.0 | 0.0 | 0.00 | 0.00 | 0.00 | 86 | 1013.4 |
| 20260903132113 | 47 | 326 | 0.0 | 0.0 | 0.00 | 0.00 | 0.00 | 86 | 1013.5 |
| 20260903054517 | 53 | 326 | 0.0 | 0.0 | 0.00 | 0.00 | 0.00 | 72 | 1014.4 |
| 20260903054016 | 54 | 326 | 0.0 | 0.0 | 0.00 | 0.00 | 0.00 | 71 | 1014.4 |
| 20260903053516 | 54 | 326 | 0.0 | 0.0 | 0.00 | 0.00 | 0.00 | 69 | 1014.4 |
| 20260903053016 | 55 | 326 | 0.0 | 0.0 | 0.00 | 0.00 | 0.00 | 70 | 1014.4 |